This is the latest recevied weather packets stored in our database for station/object HB9SZU-7. If no packets are shown the sender has not sent any weather packets the latest 10 day(s).
| Time | Temp. | Humidity | Pressure | Rain* | Wind** | Luminosity | Snow |
|---|---|---|---|---|---|---|---|
| 1777294342 | 21.67° C | 49% | 937.3 hPa | - | - | - | - |
| 1777293382 | 21.67° C | 49% | 937.5 hPa | - | - | - | - |
| 1777292422 | 22.22° C | 49% | 937.6 hPa | - | - | - | - |
| 1777291462 | 22.22° C | 49% | 937.6 hPa | - | - | - | - |
| 1777290502 | 21.67° C | 49% | 938 hPa | - | - | - | - |
| 1777289542 | 21.67° C | 49% | 938.4 hPa | - | - | - | - |
| 1777288582 | 21.67° C | 49% | 938.4 hPa | - | - | - | - |
| 1777287622 | 21.67° C | 49% | 938.4 hPa | - | - | - | - |
| 1777286662 | 21.11° C | 49% | 938.4 hPa | - | - | - | - |
| 1777285702 | 21.11° C | 49% | 938.6 hPa | - | - | - | - |
| 1777284742 | 21.11° C | 49% | 938.6 hPa | - | - | - | - |
| 1777283782 | 21.11° C | 49% | 938.8 hPa | - | - | - | - |
| 1777282822 | 20° C | 51% | 939.2 hPa | - | - | - | - |
| 1777281862 | 20° C | 51% | 939.2 hPa | - | - | - | - |
| 1777280901 | 20° C | 51% | 939.2 hPa | - | - | - | - |
| 1777279942 | 20° C | 51% | 939.2 hPa | - | - | - | - |
| 1777278982 | 19.44° C | 52% | 939.3 hPa | - | - | - | - |
| 1777278022 | 19.44° C | 52% | 939.2 hPa | - | - | - | - |
| 1777277062 | 18.89° C | 53% | 939.1 hPa | - | - | - | - |
| 1777276102 | 18.33° C | 54% | 939.1 hPa | - | - | - | - |
| 1777275142 | 16.67° C | 56% | 939.3 hPa | - | - | - | - |
| 1777274182 | 16.67° C | 56% | 939.3 hPa | - | - | - | - |
| 1777273222 | 16.67° C | 56% | 939.3 hPa | - | - | - | - |
| 1777272262 | 16.11° C | 57% | 939.2 hPa | - | - | - | - |
| 1777271302 | 15.56° C | 58% | 939.1 hPa | - | - | - | - |
* Rain since midnight (hover to see other rain measurements)
** Current wind speed in m/s (hover to see current wind gust speed)